WH7F Weather Reports


time (UTC)temp
C
wind
direction
speed
KPH
gust
KPH
rain 1hr
cm
rain 24hr
cm
rain mn
cm
humidity
%
barometer
mb
20260505004538 17 205 0.0 3.2 0.00 0.00 0.00 43 1010.5
20260505003521 17 207 0.0 0.0 0.00 0.00 0.00 42 1010.6
20260505002528 17 241 0.0 3.2 0.00 0.00 0.00 42 1010.4
20260505001516 18 0.0 0.0 0.00 0.00 0.00 40 1010.6
20260505000522 18 0.0 1.6 0.00 0.00 0.00 40 1010.4
20260504235521 18 212 0.0 1.6 0.00 0.00 0.00 39 1010.6
20260504234520 19 187 0.0 3.2 0.00 0.00 0.00 37 1010.5
20260504233523 20 183 1.6 4.8 0.00 0.00 0.00 37 1010.4
20260504232526 20 136 1.6 4.8 0.00 0.00 0.00 35 1010.4
20260504231517 20 172 1.6 8.0 0.00 0.00 0.00 33 1010.5
20260504230526 21 157 3.2 9.7 0.00 0.00 0.00 33 1010.5
20260504225517 21 144 1.6 3.2 0.00 0.00 0.00 31 1010.3
20260504224524 21 170 3.2 8.0 0.00 0.00 0.00 31 1010.4
20260504223521 22 163 3.2 9.7 0.00 0.00 0.00 30 1010.6
20260504222518 22 201 3.2 12.9 0.00 0.00 0.00 29 1010.4
20260504221521 23 178 3.2 11.3 0.00 0.00 0.00 25 1010.5
20260504220528 26 183 3.2 9.7 0.00 0.00 0.00 21 1010.4
20260504215520 29 198 3.2 4.8 0.00 0.00 0.00 20 1010.5
20260504214526 31 205 1.6 6.4 0.00 0.00 0.00 21 1010.5
20260504213521 31 190 4.8 6.4 0.00 0.00 0.00 20 1010.6
20260504212520 33 189 3.2 12.9 0.00 0.00 0.00 20 1010.6
20260504211521 34 177 3.2 8.0 0.00 0.00 0.00 20 1010.5
20260504210518 34 179 3.2 14.5 0.00 0.00 0.00 20 1010.5
20260504205521 34 213 3.2 4.8 0.00 0.00 0.00 20 1010.7
20260504204528 34 97 3.2 14.5 0.00 0.00 0.00 20 1010.6
20260504203517 34 158 3.2 12.9 0.00 0.00 0.00 20 1010.6
20260504202522 34 215 3.2 6.4 0.00 0.00 0.00 20 1010.8
20260504201521 35 136 1.6 6.4 0.00 0.00 0.00 20 1010.9
20260504200540 34 243 1.6 4.8 0.00 0.00 0.00 20 1010.9
20260504195521 33 144 3.2 6.4 0.00 0.00 0.00 20 1011.1
20260504194516 32 216 3.2 6.4 0.00 0.00 0.00 20 1011.2
20260504193518 31 144 3.2 8.0 0.00 0.00 0.00 20 1011.4
20260504192525 30 126 3.2 6.4 0.00 0.00 0.00 20 1011.6
20260504191516 30 259 3.2 4.8 0.00 0.00 0.00 20 1011.7
20260504190523 31 117 1.6 12.9 0.00 0.00 0.00 21 1011.8
20260504185516 33 220 3.2 8.0 0.00 0.00 0.00 17 1012.1
20260504184516 36 224 3.2 8.0 0.00 0.00 0.00 17 1012.3
20260504183540 36 191 3.2 8.0 0.00 0.00 0.00 17 1012.4
20260504182527 35 179 3.2 6.4 0.00 0.00 0.00 18 1012.4
20260504181520 35 173 3.2 8.0 0.00 0.00 0.00 19 1012.6
20260504180518 35 127 3.2 3.2 0.00 0.00 0.00 20 1012.6
20260504175520 35 182 3.2 11.3 0.00 0.00 0.00 19 1012.8
20260504174520 35 194 1.6 9.7 0.00 0.00 0.00 20 1012.9
20260504173520 35 229 1.6 6.4 0.00 0.00 0.00 20 1013.1
20260504172518 34 138 1.6 4.8 0.00 0.00 0.00 22 1013.2
20260504171520 33 156 1.6 8.0 0.00 0.00 0.00 21 1013.2
20260504170549 32 117 1.6 6.4 0.00 0.00 0.00 22 1013.2
20260504150517 28 153 1.6 4.8 0.00 0.00 0.00 31 1014.6
20260504140539 20 189 1.6 3.2 0.00 0.00 0.00 43 1014.9
20260504130541 13 168 3.2 4.8 0.00 0.00 0.00 50 1015.2
20260504110527 10 178 0.0 1.6 0.00 0.00 0.00 52 1015.8
20260504100519 11 176 0.0 3.2 0.00 0.00 0.00 52 1015.9
20260504081518 9 0.0 1.6 0.00 0.00 0.00 52 1016.1
20260504080525 9 0.0 0.0 0.00 0.00 0.00 52 1016.0
20260504050516 7 192 0.0 1.6 0.00 0.00 0.00 49 1016.2
20260504045540 7 189 1.6 3.2 0.00 0.00 0.00 48 1016.2
20260504044525 7 202 0.0 3.2 0.00 0.00 0.00 48 1016.3
20260504043520 7 212 0.0 1.6 0.00 0.00 0.00 47 1016.3
20260504042525 7 199 1.6 1.6 0.00 0.00 0.00 47 1016.2
20260504041524 7 206 1.6 3.2 0.00 0.00 0.00 46 1016.3
20260504040517 7 197 1.6 3.2 0.00 0.00 0.00 45 1016.3
20260504035522 7 214 1.6 1.6 0.00 0.00 0.00 44 1016.2
20260504034537 7 219 1.6 3.2 0.00 0.00 0.00 44 1016.1
20260504033521 7 195 1.6 3.2 0.00 0.00 0.00 43 1016.0
20260504032529 7 203 1.6 3.2 0.00 0.00 0.00 42 1015.9
20260504031518 7 242 1.6 3.2 0.00 0.00 0.00 41 1015.9
20260504030518 7 243 1.6 3.2 0.00 0.00 0.00 40 1015.7
20260504025544 7 238 1.6 3.2 0.00 0.00 0.00 40 1015.7
20260504024519 7 245 0.0 1.6 0.00 0.00 0.00 39 1015.8
20260504023524 7 0.0 0.0 0.00 0.00 0.00 39 1015.6
20260504022530 7 0.0 0.0 0.00 0.00 0.00 38 1015.6
20260504021515 7 0.0 0.0 0.00 0.00 0.00 36 1015.6
20260504020543 8 0.0 0.0 0.00 0.00 0.00 34 1015.6
20260504015521 8 0.0 0.0 0.00 0.00 0.00 34 1015.6
20260504014523 8 0.0 0.0 0.00 0.00 0.00 33 1015.4
20260504013517 8 0.0 0.0 0.00 0.00 0.00 32 1015.4
20260504012519 9 220 0.0 0.0 0.00 0.00 0.00 31 1015.4
20260504011519 9 225 0.0 1.6 0.00 0.00 0.00 31 1015.3
20260504010525 10 0.0 0.0 0.00 0.00 0.00 30 1015.2
20260504005520 10 0.0 0.0 0.00 0.00 0.00 31 1015.1